SWA2367 KDEN-KORD

Flight info

Callsign SWA2367
Flight time 1h 48m
Altitude 39000
Route EMMYS8 ZIRKL PWE IRK BENKY6
Aircraft B38M/M-SADE2E3GHIJ4J7P2RWZ/LB1D1

Departure

Time 2026-05-08 02:25
Airport Denver International Airport (KDEN)

Arrival

Time 2026-05-08 04:13
Airport Chicago O'Hare International Airport (KORD)
Time Latitude Longitude Altitude Speed Heading
2026-05-08 02:00 39.86249 -104.66692 5379 ft 0 kts 360°
2026-05-08 02:14 39.86243 -104.66692 5379 ft 4 kts
2026-05-08 02:14 39.86218 -104.66692 5379 ft 4 kts
2026-05-08 02:15 39.86193 -104.66692 5379 ft 4 kts 360°
2026-05-08 02:15 39.86187 -104.66692 5379 ft 0 kts 359°
2026-05-08 02:20 39.86189 -104.66692 5379 ft 0 kts 356°
2026-05-08 02:20 39.86193 -104.66692 5379 ft 1 kts 356°
2026-05-08 02:21 39.86198 -104.66684 5379 ft 5 kts 72°
2026-05-08 02:21 39.86145 -104.66634 5377 ft 15 kts 137°
2026-05-08 02:21 39.86105 -104.66456 5381 ft 27 kts 90°
2026-05-08 02:21 39.86167 -104.66230 5384 ft 32 kts
2026-05-08 02:22 39.86425 -104.66225 5384 ft 41 kts
2026-05-08 02:22 39.86714 -104.66220 5378 ft 42 kts
2026-05-08 02:22 39.86988 -104.66220 5370 ft 37 kts
2026-05-08 02:22 39.87245 -104.66216 5366 ft 37 kts
2026-05-08 02:23 39.87503 -104.66213 5361 ft 34 kts
2026-05-08 02:23 39.87671 -104.66212 5363 ft 18 kts
2026-05-08 02:23 39.87755 -104.66181 5362 ft 6 kts 78°
2026-05-08 02:23 39.87754 -104.66074 5361 ft 33 kts 91°
2026-05-08 02:24 39.87749 -104.65519 5355 ft 88 kts 89°
2026-05-08 02:24 39.87744 -104.64507 5341 ft 135 kts 90°
2026-05-08 02:24 39.87737 -104.63104 5320 ft 174 kts 90°
2026-05-08 02:24 39.87743 -104.61469 5658 ft 184 kts 90°
2026-05-08 02:25 39.87747 -104.59772 6130 ft 192 kts 90°
2026-05-08 02:25 39.87718 -104.57987 6634 ft 197 kts 91°
2026-05-08 02:25 39.87680 -104.56200 7176 ft 204 kts 91°
2026-05-08 02:25 39.87645 -104.54270 7437 ft 223 kts 92°
2026-05-08 02:26 39.87610 -104.52165 7661 ft 243 kts 90°
2026-05-08 02:26 39.87578 -104.49882 7900 ft 260 kts 90°
2026-05-08 02:26 39.87545 -104.47479 8252 ft 271 kts 90°
2026-05-08 02:26 39.87513 -104.45015 8783 ft 273 kts 90°
2026-05-08 02:27 39.87481 -104.42550 9260 ft 280 kts 90°
2026-05-08 02:27 39.87453 -104.40004 9930 ft 284 kts 89°
2026-05-08 02:27 39.87444 -104.37350 10294 ft 302 kts 89°
2026-05-08 02:27 39.87432 -104.34528 10571 ft 322 kts 90°
2026-05-08 02:28 39.87418 -104.31524 10820 ft 342 kts 90°
2026-05-08 02:28 39.87401 -104.28345 11097 ft 359 kts 90°
2026-05-08 02:28 39.87385 -104.25101 11482 ft 371 kts 90°
2026-05-08 02:28 39.87368 -104.21895 11901 ft 380 kts 90°
2026-05-08 02:29 39.87350 -104.18428 12518 ft 385 kts 90°
2026-05-08 02:29 39.87330 -104.14912 13119 ft 391 kts 90°
2026-05-08 02:29 39.87309 -104.11364 13806 ft 394 kts 90°
2026-05-08 02:29 39.87286 -104.07770 14446 ft 399 kts 89°
2026-05-08 02:30 39.87262 -104.04134 15102 ft 403 kts 89°
2026-05-08 02:30 39.87237 -104.00468 15753 ft 407 kts 88°
2026-05-08 02:30 39.87209 -103.96763 16369 ft 412 kts 88°
2026-05-08 02:30 39.87182 -103.93023 17000 ft 415 kts 88°
2026-05-08 02:31 39.87296 -103.89255 17567 ft 417 kts 82°
2026-05-08 02:31 39.87514 -103.85477 18104 ft 422 kts 81°
2026-05-08 02:31 39.87798 -103.81663 18675 ft 425 kts 80°
2026-05-08 02:31 39.88079 -103.77826 19184 ft 428 kts 81°
2026-05-08 02:32 39.88374 -103.73949 19709 ft 430 kts 77°
2026-05-08 02:32 39.88840 -103.70080 20244 ft 437 kts 77°
2026-05-08 02:32 39.89310 -103.66178 20872 ft 435 kts 77°
2026-05-08 02:32 39.89770 -103.62228 21226 ft 445 kts 78°
2026-05-08 02:33 39.90221 -103.58246 21869 ft 444 kts 78°
2026-05-08 02:33 39.90673 -103.54251 22307 ft 449 kts 78°
2026-05-08 02:33 39.91125 -103.50264 22721 ft 452 kts 78°
2026-05-08 02:33 39.91584 -103.46201 23168 ft 455 kts 78°
2026-05-08 02:34 39.92046 -103.42112 23599 ft 459 kts 78°
2026-05-08 02:34 39.92509 -103.37987 24013 ft 462 kts 78°
2026-05-08 02:34 39.92980 -103.33784 24460 ft 464 kts 78°
2026-05-08 02:34 39.93447 -103.29607 24860 ft 467 kts 78°
2026-05-08 02:35 39.93908 -103.25460 25249 ft 470 kts 78°
2026-05-08 02:35 39.94376 -103.21240 25625 ft 472 kts 78°
2026-05-08 02:35 39.94846 -103.16987 25993 ft 476 kts 78°
2026-05-08 02:35 39.95316 -103.12716 26367 ft 478 kts 78°
2026-05-08 02:36 39.95789 -103.08418 26703 ft 481 kts 78°
2026-05-08 02:36 39.96262 -103.04087 27040 ft 483 kts 78°
2026-05-08 02:36 39.96736 -102.99749 27401 ft 485 kts 78°
2026-05-08 02:36 39.97209 -102.95380 27701 ft 488 kts 78°
2026-05-08 02:37 39.97685 -102.90990 28001 ft 491 kts 78°
2026-05-08 02:37 39.98161 -102.86571 28302 ft 493 kts 78°
2026-05-08 02:37 39.98639 -102.82123 28591 ft 496 kts 78°
2026-05-08 02:37 39.99041 -102.78377 28845 ft 498 kts 78°
2026-05-08 02:38 39.99519 -102.73888 29138 ft 501 kts 78°
2026-05-08 02:38 39.99999 -102.69376 29420 ft 503 kts 78°
2026-05-08 02:38 40.00402 -102.65568 29650 ft 505 kts 78°
2026-05-08 02:38 40.00820 -102.61609 29898 ft 507 kts 78°
2026-05-08 02:39 40.01300 -102.57041 30156 ft 509 kts 78°
2026-05-08 02:39 40.01780 -102.52460 30499 ft 509 kts 78°
2026-05-08 02:39 40.02259 -102.47882 30849 ft 509 kts 78°
2026-05-08 02:39 40.02734 -102.43306 31183 ft 509 kts 78°
2026-05-08 02:40 40.03207 -102.38733 31568 ft 508 kts 77°
2026-05-08 02:40 40.03519 -102.35711 31820 ft 507 kts 77°
2026-05-08 02:40 40.03987 -102.31158 32179 ft 506 kts 77°
2026-05-08 02:40 40.04454 -102.26607 32539 ft 505 kts 77°
2026-05-08 02:41 40.04919 -102.22054 32873 ft 505 kts 77°
2026-05-08 02:41 40.05379 -102.17523 33214 ft 503 kts 77°
2026-05-08 02:41 40.05837 -102.12999 33525 ft 503 kts 77°
2026-05-08 02:41 40.06294 -102.08474 33849 ft 502 kts 77°
2026-05-08 02:42 40.06748 -102.03957 34165 ft 501 kts 77°
2026-05-08 02:42 40.07199 -101.99448 34455 ft 501 kts 77°
2026-05-08 02:42 40.07647 -101.94938 34732 ft 500 kts 77°
2026-05-08 02:42 40.08095 -101.90429 34970 ft 500 kts 77°
2026-05-08 02:43 40.08541 -101.85919 35184 ft 501 kts 77°
2026-05-08 02:43 40.08986 -101.81401 35424 ft 501 kts 78°
2026-05-08 02:43 40.09429 -101.76881 35639 ft 502 kts 78°
2026-05-08 02:43 40.09870 -101.72366 35880 ft 501 kts 78°
2026-05-08 02:44 40.10310 -101.67845 36067 ft 502 kts 78°
2026-05-08 02:44 40.10749 -101.63315 36254 ft 502 kts 78°
2026-05-08 02:44 40.11185 -101.58790 36450 ft 502 kts 79°
2026-05-08 02:44 40.11622 -101.54258 36617 ft 503 kts 79°
2026-05-08 02:45 40.12056 -101.49728 36818 ft 502 kts 79°
2026-05-08 02:45 40.12483 -101.45268 37077 ft 500 kts 79°
2026-05-08 02:45 40.12910 -101.40774 37351 ft 497 kts 79°
2026-05-08 02:45 40.13237 -101.36277 37555 ft 498 kts 86°
2026-05-08 02:46 40.13325 -101.31759 37675 ft 498 kts 85°
2026-05-08 02:46 40.13459 -101.27231 37793 ft 499 kts 85°
2026-05-08 02:46 40.13607 -101.22707 37922 ft 499 kts 85°
2026-05-08 02:46 40.13760 -101.18177 38034 ft 499 kts 85°
2026-05-08 02:47 40.14065 -101.09093 38214 ft 501 kts 85°
2026-05-08 02:47 40.14216 -101.04535 38326 ft 502 kts 85°
2026-05-08 02:47 40.14365 -100.99981 38434 ft 502 kts 85°
2026-05-08 02:48 40.14512 -100.95409 38541 ft 502 kts 86°
2026-05-08 02:48 40.14657 -100.90850 38630 ft 503 kts 86°
2026-05-08 02:48 40.14944 -100.81691 38800 ft 504 kts 86°
2026-05-08 02:49 40.15085 -100.77115 38907 ft 503 kts 86°
2026-05-08 02:49 40.15223 -100.72545 38911 ft 505 kts 86°
2026-05-08 02:49 40.15494 -100.63415 38897 ft 506 kts 86°
2026-05-08 02:50 40.15760 -100.54213 38885 ft 507 kts 86°
2026-05-08 02:50 40.16019 -100.44990 38892 ft 508 kts 86°
2026-05-08 02:51 40.16271 -100.35759 38887 ft 509 kts 87°
2026-05-08 02:51 40.16517 -100.26504 38887 ft 510 kts 87°
2026-05-08 02:52 40.16755 -100.17228 38888 ft 510 kts 87°
2026-05-08 02:52 40.16987 -100.07959 38881 ft 510 kts 87°
2026-05-08 02:53 40.17210 -99.98683 38890 ft 511 kts 87°
2026-05-08 02:53 40.17426 -99.89397 38887 ft 511 kts 87°
2026-05-08 02:54 40.17430 -99.89227 38887 ft 511 kts 87°
2026-05-08 02:54 40.17632 -99.80294 38888 ft 511 kts 88°
2026-05-08 02:55 40.17932 -99.66369 38888 ft 511 kts 88°
2026-05-08 02:56 40.18122 -99.57074 38887 ft 511 kts 88°
2026-05-08 02:56 40.18306 -99.47778 38889 ft 511 kts 88°
2026-05-08 02:57 40.18482 -99.38484 38887 ft 511 kts 88°
2026-05-08 02:57 40.18650 -99.29183 38888 ft 511 kts 88°
2026-05-08 02:58 40.18801 -99.20480 38889 ft 512 kts 88°
2026-05-08 02:58 40.18955 -99.11243 38888 ft 512 kts 88°
2026-05-08 02:59 40.19102 -99.01929 38887 ft 512 kts 88°
2026-05-08 02:59 40.19241 -98.92614 38889 ft 513 kts 88°
2026-05-08 03:00 40.19374 -98.83280 38887 ft 514 kts 88°
2026-05-08 03:00 40.19499 -98.73929 38889 ft 515 kts 88°
2026-05-08 03:01 40.19617 -98.64555 38887 ft 515 kts 89°
2026-05-08 03:01 40.19727 -98.55173 38895 ft 516 kts 88°
2026-05-08 03:02 40.19830 -98.45805 38893 ft 515 kts 89°
2026-05-08 03:02 40.19924 -98.36472 38898 ft 517 kts 89°
2026-05-08 03:03 40.20013 -98.27058 38896 ft 518 kts 89°
2026-05-08 03:03 40.20093 -98.17633 38899 ft 519 kts 89°
2026-05-08 03:04 40.20166 -98.08202 38897 ft 518 kts 89°
2026-05-08 03:04 40.20231 -97.98772 38896 ft 519 kts 89°
2026-05-08 03:05 40.20289 -97.89324 38899 ft 520 kts 89°
2026-05-08 03:05 40.20338 -97.79861 38899 ft 520 kts 89°
2026-05-08 03:06 40.20381 -97.70414 38895 ft 518 kts 89°
2026-05-08 03:06 40.20416 -97.60973 38899 ft 519 kts 89°
2026-05-08 03:07 40.20442 -97.51535 38897 ft 519 kts 89°
2026-05-08 03:07 40.20462 -97.42109 38897 ft 518 kts 89°
2026-05-08 03:08 40.20473 -97.32940 38895 ft 518 kts 89°
2026-05-08 03:08 40.20477 -97.23522 38900 ft 518 kts 89°
2026-05-08 03:09 40.20473 -97.14109 38894 ft 517 kts 90°
2026-05-08 03:09 40.20462 -97.04702 38899 ft 517 kts 90°
2026-05-08 03:10 40.20444 -96.95278 38898 ft 518 kts 90°
2026-05-08 03:10 40.20417 -96.85862 38897 ft 518 kts 90°
2026-05-08 03:11 40.20383 -96.76437 38898 ft 519 kts 90°
2026-05-08 03:11 40.20343 -96.67006 38899 ft 519 kts 90°
2026-05-08 03:12 40.20296 -96.57559 38898 ft 520 kts 91°
2026-05-08 03:12 40.20242 -96.48095 38895 ft 520 kts 91°
2026-05-08 03:13 40.20181 -96.38701 38901 ft 521 kts 91°
2026-05-08 03:13 40.20112 -96.29221 38905 ft 521 kts 91°
2026-05-08 03:14 40.20052 -96.21122 38908 ft 522 kts 91°
2026-05-08 03:14 40.20018 -96.11634 38908 ft 522 kts 91°
2026-05-08 03:15 40.19983 -96.02140 38904 ft 522 kts 91°
2026-05-08 03:15 40.19939 -95.92638 38911 ft 523 kts 91°
2026-05-08 03:16 40.19888 -95.83129 38928 ft 523 kts 91°
2026-05-08 03:16 40.19830 -95.73620 38907 ft 523 kts 91°
2026-05-08 03:17 40.19763 -95.64119 38916 ft 523 kts 91°
2026-05-08 03:17 40.19689 -95.54617 38905 ft 522 kts 91°
2026-05-08 03:18 40.19607 -95.45129 38907 ft 522 kts 91°
2026-05-08 03:18 40.19517 -95.35640 38905 ft 522 kts 91°
2026-05-08 03:19 40.19420 -95.26132 38908 ft 523 kts 91°
2026-05-08 03:19 40.19315 -95.16621 38908 ft 523 kts 91°
2026-05-08 03:20 40.19201 -95.07110 38905 ft 523 kts 91°
2026-05-08 03:20 40.19080 -94.97584 38905 ft 524 kts 91°
2026-05-08 03:21 40.18952 -94.88106 38907 ft 525 kts 91°
2026-05-08 03:21 40.18815 -94.78559 38909 ft 526 kts 91°
2026-05-08 03:22 40.18669 -94.68975 38906 ft 527 kts 91°
2026-05-08 03:22 40.18516 -94.59373 38917 ft 529 kts 91°
2026-05-08 03:23 40.18353 -94.49744 38914 ft 530 kts 91°
2026-05-08 03:23 40.18192 -94.40571 38914 ft 530 kts 91°
2026-05-08 03:24 40.18014 -94.30952 38919 ft 532 kts 91°
2026-05-08 03:24 40.17828 -94.21277 38921 ft 533 kts 91°
2026-05-08 03:25 40.17634 -94.11640 38926 ft 534 kts 92°
2026-05-08 03:25 40.17533 -94.06792 38824 ft 535 kts 92°
2026-05-08 03:25 40.17430 -94.01939 38530 ft 533 kts 92°
2026-05-08 03:25 40.17326 -93.97106 38237 ft 532 kts 92°
2026-05-08 03:26 40.17222 -93.92378 37951 ft 532 kts 92°
2026-05-08 03:26 40.17113 -93.87501 37655 ft 532 kts 92°
2026-05-08 03:26 40.17002 -93.82657 37363 ft 532 kts 92°
2026-05-08 03:26 40.16890 -93.77832 37074 ft 531 kts 92°
2026-05-08 03:27 40.16778 -93.73074 36899 ft 530 kts 92°
2026-05-08 03:27 40.16543 -93.63415 36929 ft 533 kts 92°
2026-05-08 03:28 40.16300 -93.53739 36928 ft 533 kts 92°
2026-05-08 03:28 40.16050 -93.44069 36926 ft 532 kts 92°
2026-05-08 03:29 40.15791 -93.34407 36927 ft 532 kts 92°
2026-05-08 03:29 40.15526 -93.24815 36926 ft 532 kts 92°
2026-05-08 03:30 40.15112 -93.10328 36926 ft 531 kts 92°
2026-05-08 03:31 40.14532 -92.91007 36933 ft 533 kts 92°
2026-05-08 03:32 40.14080 -92.76544 36939 ft 534 kts 92°
2026-05-08 03:32 40.13786 -92.67432 36944 ft 535 kts 92°
2026-05-08 03:33 40.14305 -92.57802 36921 ft 528 kts 68°
2026-05-08 03:33 40.17231 -92.49090 36932 ft 526 kts 60°
2026-05-08 03:34 40.20318 -92.40477 36945 ft 527 kts 60°
2026-05-08 03:34 40.23452 -92.31773 36945 ft 529 kts 60°
2026-05-08 03:35 40.26577 -92.23068 36941 ft 529 kts 60°
2026-05-08 03:35 40.29703 -92.14334 36944 ft 530 kts 60°
2026-05-08 03:36 40.32759 -92.05769 36944 ft 530 kts 60°
2026-05-08 03:36 40.35852 -91.97074 36942 ft 530 kts 60°
2026-05-08 03:37 40.38963 -91.88307 36944 ft 530 kts 60°
2026-05-08 03:37 40.42060 -91.79538 36940 ft 530 kts 60°
2026-05-08 03:38 40.45056 -91.70713 36935 ft 530 kts 61°
2026-05-08 03:38 40.48058 -91.61890 36933 ft 529 kts 61°
2026-05-08 03:39 40.51034 -91.53117 36936 ft 529 kts 61°
2026-05-08 03:39 40.53828 -91.44856 36932 ft 528 kts 61°
2026-05-08 03:40 40.56834 -91.36062 36932 ft 527 kts 60°
2026-05-08 03:40 40.59405 -91.28547 36933 ft 527 kts 60°
2026-05-08 03:41 40.62385 -91.19810 36933 ft 527 kts 61°
2026-05-08 03:41 40.65379 -91.11000 36932 ft 526 kts 60°
2026-05-08 03:42 40.68358 -91.02210 36933 ft 526 kts 60°
2026-05-08 03:42 40.71332 -90.93405 36943 ft 527 kts 61°
2026-05-08 03:43 40.74285 -90.84636 36944 ft 527 kts 61°
2026-05-08 03:43 40.77250 -90.75803 36952 ft 527 kts 61°
2026-05-08 03:44 40.80209 -90.66962 36962 ft 527 kts 61°
2026-05-08 03:44 40.83169 -90.58112 36967 ft 527 kts 61°
2026-05-08 03:45 40.85945 -90.49814 36963 ft 528 kts 61°
2026-05-08 03:45 40.87209 -90.46023 36964 ft 528 kts 61°
2026-05-08 03:46 40.89546 -90.39008 36782 ft 523 kts 61°
2026-05-08 03:46 40.91011 -90.34603 36087 ft 524 kts 61°
2026-05-08 03:46 40.92478 -90.30181 35293 ft 527 kts 61°
2026-05-08 03:46 40.93955 -90.25725 34467 ft 531 kts 61°
2026-05-08 03:47 40.95440 -90.21237 33628 ft 534 kts 61°
2026-05-08 03:47 40.96932 -90.16719 32773 ft 537 kts 61°
2026-05-08 03:47 40.98406 -90.12245 31989 ft 538 kts 61°
2026-05-08 03:47 40.99894 -90.07727 31283 ft 535 kts 61°
2026-05-08 03:48 41.01377 -90.03214 30351 ft 534 kts 61°
2026-05-08 03:48 41.02848 -89.98736 29555 ft 528 kts 60°
2026-05-08 03:48 41.04324 -89.94285 28808 ft 527 kts 60°
2026-05-08 03:48 41.05790 -89.89847 28148 ft 523 kts 60°
2026-05-08 03:49 41.07243 -89.85447 27491 ft 520 kts 60°
2026-05-08 03:49 41.08501 -89.81628 26901 ft 517 kts 60°
2026-05-08 03:49 41.09934 -89.77276 26224 ft 514 kts 60°
2026-05-08 03:49 41.11337 -89.73006 25560 ft 510 kts 60°
2026-05-08 03:50 41.11814 -89.71551 25333 ft 509 kts 60°
2026-05-08 03:50 41.12554 -89.69295 24980 ft 501 kts 60°
2026-05-08 03:50 41.13924 -89.65110 24367 ft 487 kts 60°
2026-05-08 03:50 41.15303 -89.61073 23725 ft 475 kts 53°
2026-05-08 03:51 41.17191 -89.57629 23097 ft 451 kts 38°
2026-05-08 03:51 41.19344 -89.54661 22595 ft 443 kts 37°
2026-05-08 03:51 41.21502 -89.51774 22027 ft 440 kts 36°
2026-05-08 03:51 41.23646 -89.48956 21386 ft 439 kts 36°
2026-05-08 03:52 41.25672 -89.46328 20768 ft 438 kts 36°
2026-05-08 03:55 41.25994 -89.45919 20672 ft 436 kts 36°
2026-05-08 03:55 41.28165 -89.43196 20088 ft 422 kts 35°
2026-05-08 03:55 41.30288 -89.40538 19560 ft 419 kts 35°
2026-05-08 03:55 41.32406 -89.37879 19026 ft 417 kts 35°
2026-05-08 03:56 41.34506 -89.35241 18509 ft 414 kts 36°
2026-05-08 03:56 41.36588 -89.32622 18002 ft 412 kts 36°
2026-05-08 03:56 41.38639 -89.30040 17499 ft 409 kts 36°
2026-05-08 03:56 41.40697 -89.27446 17031 ft 406 kts 36°
2026-05-08 03:57 41.42738 -89.24871 16578 ft 402 kts 36°
2026-05-08 03:57 41.44764 -89.22318 15983 ft 401 kts 36°
2026-05-08 03:57 41.47020 -89.20261 15420 ft 386 kts 17°
2026-05-08 03:57 41.49513 -89.19119 14995 ft 376 kts 11°
2026-05-08 03:58 41.52007 -89.18125 14515 ft 372 kts
2026-05-08 03:58 41.54490 -89.17181 14002 ft 370 kts
2026-05-08 03:58 41.56963 -89.16263 13490 ft 368 kts
2026-05-08 03:58 41.59432 -89.15362 12982 ft 367 kts
2026-05-08 03:59 41.61861 -89.14483 12480 ft 366 kts
2026-05-08 03:59 41.64315 -89.13600 12051 ft 363 kts 10°
2026-05-08 03:59 41.66717 -89.12736 12029 ft 355 kts
2026-05-08 03:59 41.69104 -89.11878 11924 ft 355 kts 10°
2026-05-08 04:00 41.71480 -89.11024 11769 ft 354 kts
2026-05-08 04:00 41.73813 -89.09937 11612 ft 357 kts 17°
2026-05-08 04:00 41.76125 -89.08715 11469 ft 357 kts 16°
2026-05-08 04:00 41.78419 -89.07522 11352 ft 349 kts 16°
2026-05-08 04:01 41.80648 -89.06375 11250 ft 337 kts 15°
2026-05-08 04:01 41.82671 -89.04953 11139 ft 333 kts 31°
2026-05-08 04:01 41.84509 -89.03155 11043 ft 322 kts 31°
2026-05-08 04:01 41.86296 -89.01431 10946 ft 311 kts 30°
2026-05-08 04:02 41.88024 -88.99769 10855 ft 300 kts 30°
2026-05-08 04:02 41.89693 -88.98165 10758 ft 291 kts 30°
2026-05-08 04:02 41.91184 -88.96325 10622 ft 297 kts 50°
2026-05-08 04:02 41.92037 -88.93781 10519 ft 304 kts 75°
2026-05-08 04:03 41.92364 -88.90965 10442 ft 306 kts 79°
2026-05-08 04:03 41.92955 -88.85337 10237 ft 306 kts 80°
2026-05-08 04:03 41.93242 -88.82507 10145 ft 307 kts 80°
2026-05-08 04:04 41.93526 -88.79663 10048 ft 306 kts 81°
2026-05-08 04:04 41.93807 -88.76835 9946 ft 306 kts 81°
2026-05-08 04:04 41.94088 -88.74003 9850 ft 306 kts 81°
2026-05-08 04:04 41.94366 -88.71175 9753 ft 305 kts 81°
2026-05-08 04:05 41.94644 -88.68355 9647 ft 304 kts 81°
2026-05-08 04:05 41.94920 -88.65537 9557 ft 304 kts 81°
2026-05-08 04:05 41.95198 -88.62716 9458 ft 305 kts 81°
2026-05-08 04:05 41.95468 -88.59936 9362 ft 305 kts 81°
2026-05-08 04:06 41.95742 -88.57113 9269 ft 304 kts 81°
2026-05-08 04:06 41.96015 -88.54300 9168 ft 303 kts 81°
2026-05-08 04:06 41.96282 -88.51500 9040 ft 303 kts 83°
2026-05-08 04:06 41.96355 -88.48652 8630 ft 308 kts 89°
2026-05-08 04:07 41.96381 -88.45758 8197 ft 311 kts 88°
2026-05-08 04:07 41.96396 -88.42846 7786 ft 313 kts 89°
2026-05-08 04:07 41.96401 -88.39904 7333 ft 316 kts 89°
2026-05-08 04:07 41.96411 -88.37031 6981 ft 307 kts 88°
2026-05-08 04:08 41.96424 -88.34200 6569 ft 300 kts 88°
2026-05-08 04:08 41.96436 -88.31430 6159 ft 294 kts 88°
2026-05-08 04:08 41.96449 -88.28723 5784 ft 286 kts 88°
2026-05-08 04:08 41.96462 -88.26062 5412 ft 285 kts 88°
2026-05-08 04:09 41.96475 -88.23416 5049 ft 281 kts 88°
2026-05-08 04:09 41.96486 -88.20801 4647 ft 280 kts 88°
2026-05-08 04:09 41.96496 -88.18208 4324 ft 274 kts 88°
2026-05-08 04:09 41.96508 -88.15722 4028 ft 267 kts 88°
2026-05-08 04:10 41.96511 -88.13244 3697 ft 262 kts 89°
2026-05-08 04:10 41.96509 -88.10856 3425 ft 248 kts 90°
2026-05-08 04:10 41.96511 -88.08586 3078 ft 240 kts 89°
2026-05-08 04:10 41.96513 -88.06384 2757 ft 233 kts 90°
2026-05-08 04:11 41.96520 -88.04284 2505 ft 211 kts 91°
2026-05-08 04:11 41.96527 -88.02441 2220 ft 190 kts 90°
2026-05-08 04:11 41.96532 -88.00713 1944 ft 181 kts 90°
2026-05-08 04:11 41.96539 -87.99038 1678 ft 176 kts 90°
2026-05-08 04:12 41.96549 -87.97428 1431 ft 166 kts 89°
2026-05-08 04:12 41.96555 -87.95869 1172 ft 170 kts 89°
2026-05-08 04:12 41.96565 -87.94259 897 ft 174 kts 90°
2026-05-08 04:12 41.96570 -87.92683 683 ft 157 kts 90°
2026-05-08 04:13 41.96572 -87.91347 670 ft 130 kts 90°
2026-05-08 04:13 41.96574 -87.90366 671 ft 66 kts 90°
2026-05-08 04:13 41.96576 -87.89885 670 ft 47 kts 90°
2026-05-08 04:13 41.96619 -87.89693 671 ft 18 kts 17°
2026-05-08 04:14 41.96738 -87.89649 671 ft 18 kts 64°
2026-05-08 04:14 41.96745 -87.89470 672 ft 20 kts 67°
2026-05-08 04:14 41.96868 -87.89436 673 ft 20 kts 359°
2026-05-08 04:14 41.97022 -87.89438 672 ft 25 kts 360°
2026-05-08 04:15 41.97217 -87.89435 671 ft 30 kts
2026-05-08 04:15 41.97406 -87.89431 671 ft 24 kts 359°
2026-05-08 04:15 41.97553 -87.89433 671 ft 19 kts 360°
2026-05-08 04:15 41.97667 -87.89427 671 ft 13 kts
2026-05-08 04:16 41.97696 -87.89407 671 ft 0 kts 74°
2026-05-08 04:16 41.97697 -87.89386 671 ft 6 kts 89°
2026-05-08 04:16 41.97695 -87.89371 671 ft 0 kts 117°
2026-05-08 04:17 41.97694 -87.89370 671 ft 0 kts 126°
2026-05-08 04:17 41.97659 -87.89361 669 ft 11 kts 173°
2026-05-08 04:17 41.97571 -87.89319 670 ft 11 kts 103°
2026-05-08 04:17 41.97590 -87.89237 671 ft 2 kts 68°
2026-05-08 04:18 41.97592 -87.89231 671 ft 0 kts 68°